Humidity-temperature Sensor

Selected Measurement Type: Air Temperature

 
Air Temperature [°C]     6 entries per hour
Showing data from 11/28/2014 (00:00:00 Z) to 11/27/2014 (00:01:00 Z)
Previous Next [ Day | 3-Days | 7-Days ]
First Last
Prev [ Day | 3-Days | 7-Days ] Next
First Last

Start Time:     :
End Time:     :     
Time (in GMT) :00 :50 :40 :30 :20 :10
Previous Next [ Day | 3-Days | 7-Days ]
First Last
Prev [ Day | 3-Days | 7-Days ] Next
First Last


123 => good data
MM => data is determined as missing
-- => data not received/configured
Back to Top Back to Top
11/28/2014 00:00 to 23:10 22.02 22.03 22.19 22.40 22.19 22.22
11/27/2014 23:00 to 22:10 22.23 22.37 22.33 22.31 22.28 22.37
11/27/2014 22:00 to 21:10 22.37 22.41 22.32 22.50 22.40 22.46
11/27/2014 21:00 to 20:10 22.53 22.55 22.46 22.49 22.44 22.49
11/27/2014 20:00 to 19:10 22.42 22.50 22.37 22.38 22.22 22.27
11/27/2014 19:00 to 18:10 22.24 22.08 22.09 21.98 22.11 21.99
11/27/2014 18:00 to 17:10 22.06 21.98 21.98 22.05 22.05 22.00
11/27/2014 17:00 to 16:10 22.02 22.13 22.08 22.23 22.15 22.10
11/27/2014 16:00 to 15:10 22.22 22.24 22.31 22.30 22.28 22.09
11/27/2014 15:00 to 14:10 22.17 22.04 22.05 21.87 21.96 21.80
11/27/2014 14:00 to 13:10 21.83 22.18 22.22 21.99 22.03 21.97
11/27/2014 13:00 to 12:10 21.90 21.81 21.73 21.85 21.70 21.76
11/27/2014 12:00 to 11:10 21.63 21.61 21.59 21.61 21.48 21.53
11/27/2014 11:00 to 10:10 21.58 21.54 21.50 21.51 21.43 21.44
11/27/2014 10:00 to 9:10 21.37 21.39 21.33 21.34 21.45 21.46
11/27/2014 09:00 to 8:10 21.44 21.57 21.47 21.56 21.48 21.49
11/27/2014 08:00 to 7:10 21.48 21.53 21.53 21.55 21.67 21.69
11/27/2014 07:00 to 6:10 21.62 21.60 21.66 21.58 21.69 21.78
11/27/2014 06:00 to 5:10 21.80 21.78 21.76 21.80 21.85 21.85
11/27/2014 05:00 to 4:10 21.91 21.91 21.90 22.03 21.87 21.84
11/27/2014 04:00 to 3:10 21.97 21.94 21.93 21.96 22.06 22.12
11/27/2014 03:00 to 2:10 21.80 21.93 21.99 21.95 22.05 22.00
11/27/2014 02:00 to 1:10 21.92 21.91 21.87 21.98 22.02 22.02
11/27/2014 01:00 to 0:10 22.06 22.05 22.03 22.10 22.07 22.02